User: anonymous   Login
Location: Unspecified
(0.0000°N, 0.0000°E)
Time: 21:56:17
(UTC+00:00)
Language:

DICE 1 - Orbit

View from above orbital plane
View from above orbital plane
View from above satellite
View from above satellite

Ground track
Ground track

The orbit data is extracted from the following two-line orbital elements,

1 37851U 11061B   23083.63703188  .00058227  00000-0  21497-2 0  9994
2 37851 101.7273 348.9306 0138837 339.0951  20.4624 15.18893845623449
Epoch (UTC): 24 March 2023 15:17:19
Eccentricity: 0.0138837
inclination: 101.7273°
perigee height: 413 km
apogee height: 605 km
right ascension of ascending node: 348.9306°
argument of perigee: 339.0951°
revolutions per day: 15.18893845
mean anomaly at epoch: 20.4624°
orbit number at epoch: 62344

The dashed part of the orbit path shows where the satellite is in the earth's shadow,  

DLR